Home   Weather   Warren   Past weeks

Flag for USA Past Weather in Warren, Michigan, USA — Yesterday and Last 2 Weeks

Now
32 °F

Partly sunny.


Feels Like: 26 °F
Forecast: 20 / 35 °F
Wind: 7 mph from South

Location: Detroit City Airport

Current Time: Feb 17, 2018 at 5:10:04 pm

Latest Report: Feb 17, 2018 at 4:12 pm


Visibility: 10 mi

Pressure: 29.99 "Hg

Humidity: 73%

Dew Point: 24 °F

Location of WarrenLocation

Past Weather in Warren — Graph

°F

Warren Temperature Yesterday

Maximum temperature yesterday: 40 °F (at 12:53 am)
Minimum temperature yesterday: 22 °F (at 10:53 pm)
Average temperature yesterday: 32 °F

High & Low Weather Summary for the Past Weeks

 TemperatureHumidityPressure
High46 °F (Feb 15, 10:53 am)100% (Feb 14, 9:28 pm)30.99 "Hg (Feb 14, 9:28 pm)
Low6 °F (Feb 5, 3:53 am)38% (Feb 4, 12:53 am)28.07 "Hg (Feb 7, 4:53 am)
Average25 °F77%30.11 "Hg
* Reported Feb 2 3:53 pm — Feb 17 3:01 pm, Warren. Weather by CustomWeather, © 2018

Note: Actual official high and low records may vary slightly from our data, if they occured in-between our weather recording intervals... More about our weather records

Advertising

Warren Weather History for the Previous 24 Hours

Scroll right to see more
 ConditionsComfort  
Time TempWeatherWind HumidityBarometerVisibility
3:01 pm
Sat, Feb 17
32 °FScattered clouds.10 mph69%29.98 "Hg10 mi
2:33 pm32 °FPartly sunny.8 mph66%30.00 "Hg10 mi
2:16 pm32 °FPartly sunny.12 mph66%30.02 "Hg10 mi
2:05 pm33 °FPartly sunny.9 mph63%30.03 "Hg10 mi
1:53 pm33 °FBroken clouds.10 mph61%30.07 "Hg10 mi
11:53 am31 °FPassing clouds.10 mph67%30.12 "Hg10 mi
10:53 am30 °FSunny.10 mph69%30.16 "Hg10 mi
9:53 am29 °FScattered clouds.10 mph72%30.20 "Hg10 mi
8:53 am28 °FPartly sunny.8 mph72%30.22 "Hg10 mi
7:53 am26 °FPartly sunny.7 mph77%30.23 "Hg10 mi
6:53 am23 °FPassing clouds.6 mph81%30.23 "Hg10 mi
5:53 am20 °FClear.6 mph85%30.25 "Hg10 mi
4:53 am21 °FPassing clouds.3 mph81%30.26 "Hg10 mi
3:53 am21 °FClear.No wind81%30.27 "Hg10 mi
1:53 am23 °FClear.6 mph72%30.28 "Hg10 mi
12:53 am24 °FClear.3 mph68%30.28 "Hg10 mi
11:53 pm
Fri, Feb 16
25 °FClear.5 mph66%30.28 "Hg10 mi
10:53 pm22 °FClear.6 mph72%30.29 "Hg10 mi
9:53 pm24 °FClear.5 mph68%30.29 "Hg10 mi
8:53 pm25 °FClear.5 mph66%30.29 "Hg10 mi
7:53 pm29 °FClear.No wind51%30.27 "Hg10 mi
6:53 pm30 °FClear.5 mph49%30.27 "Hg10 mi
5:53 pm32 °FOvercast.7 mph52%30.24 "Hg10 mi
Weather by CustomWeather, © 2018

See weather overview